Regional Weather Roundup
Issued by NWS Wilmington, NC

Home | Current Version | Previous Version | Text Only | Print | Product List | Glossary On
Versions: 1 2 3 4 5 6 7 8 9 10 11 12 13 14 15 16 17 18 19 20 21 22 23 24 25 26 27 28 29 30 31 32 33 34 35 36 37 38 39 40 41 42 43 44 45 46 47 48 49 50
000
ASUS42 KILM 020910
RWRILM
RWRILM
REGIONAL HOURLY WEATHER ROUNDUP
NATIONAL WEATHER SERVICE WILMINGTON NC
500 AM EDT SAT AUG 02 2014

NOTE: "FAIR" INDICATES FEW OR NO CLOUDS BELOW 12,000 FEET WITH NO
SIGNIFICANT WEATHER AND/OR OBSTRUCTIONS TO VISIBILITY.

...............WFO WILMINGTON COUNTY WARNING AREA...............

......COASTAL NC AND SC COUNTIES......

CITY           SKY/WX    TMP DP  RH WIND       PRES   REMARKS
WILMINGTON     LGT RAIN  76  75  97 CALM      30.02S
SOUTHPORT      CLOUDY    74  73  97 CALM      30.00F
N MYRTLE BEACH CLOUDY    75  73  93 N7        30.00F
MYRTLE BEACH   CLOUDY    75  73  94 N6        29.99F

......INLAND NC AND SC COUNTIES.......

CITY           SKY/WX    TMP DP  RH WIND       PRES   REMARKS
LUMBERTON      CLOUDY    69  68  96 N7        30.04S FOG
ELIZABETHTOWN  CLOUDY    70  70 100 CALM      30.04F FOG
WHITEVILLE     FOG       72  71  97 CALM      30.02F VSB 1
FLORENCE       CLOUDY    69  68  96 NE6       30.03F FOG
DARLINGTON     CLOUDY    68  64  88 N8        30.06F

....................REST OF NORTH CAROLINA......................

.........EASTERN NC.........

CITY           SKY/WX    TMP DP  RH WIND       PRES   REMARKS
CAPE HATTERAS  LGT RAIN  75  75 100 S17       30.08R
JACKSONVILLE   CLOUDY    73  70  88 CALM      30.04S VSB 1/2
MOREHEAD CITY  CLOUDY    75  73  93 SE3       30.05R
KENANSVILLE    FOG       69  68  96 N3        30.05F VSB 1/2
NEW BERN       CLOUDY    75  72  90 CALM      30.06R
ELIZABETH CITY LGT RAIN  75  72  90 S10       30.04F

.........CENTRAL NC.........

CITY           SKY/WX    TMP DP  RH WIND       PRES   REMARKS
RALEIGH DURHAM DRIZZLE   65  62  90 N5        30.09F FOG
ROCKY MOUNT    CLOUDY    66  65  96 N7        30.08S FOG
ROANOKE RAPIDS NOT AVBL
FAYETTEVILLE   CLOUDY    67  66  97 N9        30.06S
HOFFMAN        CLOUDY    66  66 100 N6        30.09R FOG

.........WESTERN NC.........

CITY           SKY/WX    TMP DP  RH WIND       PRES   REMARKS
CHARLOTTE      CLOUDY    67  63  87 NE5       30.10S
GREENSBORO     CLOUDY    62  61  96 NE6       30.11S FOG
HICKORY        NOT AVBL
BOONE          NOT AVBL
ASHEVILLE      NOT AVBL

.....................REST OF SOUTH CAROLINA.....................

.........EASTERN SC.........

CITY           SKY/WX    TMP DP  RH WIND       PRES   REMARKS
CHARLESTON     CLOUDY    76  73  91 CALM      30.00R
BEAUFORT MCAS  TSTM      76  74  93 E6        29.99F FOG
HILTON HEAD    NOT AVBL

.........CENTRAL SC.........

CITY           SKY/WX    TMP DP  RH WIND       PRES   REMARKS
COLUMBIA       CLOUDY    73  67  81 N8        30.04F
ORANGEBURG     CLOUDY    72  69  90 N8        30.02S
SUMTER SHAW    CLOUDY    69  69 100 VRB7      30.03S

.........WESTERN SC.........

CITY           SKY/WX    TMP DP  RH WIND       PRES   REMARKS
GREENVILLE     NOT AVBL
ROCK HILL      CLOUDY    66  65  96 NE9       30.09S
ANDERSON       CLOUDY    67  64  90 NE6       30.09S
CLEMSON        NOT AVBL
GREENWOOD      CLOUDY    67  65  93 NE7       30.09S FOG


...................COASTAL AND OFFSHORE REPORTS..................

................LOCAL PIERS AND NC RESERVE................


STATION/POSITION TIME  SKY/WX   TEMP    WIND        PRES    VSBY
                                AIR SEA DIR/SP/G
                 (UTC)          (F)     (DEG/KT/KT) (MB)    (MI)
JOHNY MRCER PIER 0900            78 82  180/  7/  8 1016.1R
NC RESRV MASNBRO 0800            76     190/  4     1016.0S
OCEAN CREST PIER 0900            74 82   30/  7/  8 1015.0F
SPRINGMAID  PIER 0900            76 82  340/  3/  4 1015.8F


................COASTAL AND OFFSHORE BUOYS................


STATION/POSITION TIME  SKY/WX   TEMP    WIND        PRES    VSBY
                                AIR SEA DIR/SP/G
                 (UTC)          (F)     (DEG/KT/KT) (MB)    (MI)
DIMNDSHOAL 41025 0900                   VRB 14/ 16  1018.7F
WVE H/P(F/S)=  4/ 7 WND WVE H/P(F/S)=  3/ 5 SWL H/P/D(F/S/D)=  2/130/ 7

CAPE LOOKOUT     0800            76     150/  4/  4 1017.4F
ONSLOW BAY 41036 0800            78 81  150/ 14/ 16 1017.1F
5 WRITEBCH 41038 0800            76 81  170/  6/  8   N/A
MASONBORO  41110 0900               81                N/A
WVE H/P(F/S)=  3/ 6 WND WVE H/P(F/S)=  3/ 6

WILM HARBR 41108 NOT AVBL
27WRITEBCH 41037 0800            74 81  160/ 16/ 19 1017.0S
FRYING PAN 41013 NOT AVBL
SUNST NRSH 41024 0800            73      50/  6/  8 1016.1S
CAPRS NRSH 41029 0800            78     300/ 10/ 12   N/A
EDISTO     41004 0900            82 83  190/ 10/ 14 1014.8S
WVE H/P(F/S)=  4/ 7 WND WVE H/P(F/S)=  2/ 5 SWL H/P/D(F/S/D)=  3/ 7



..........OFFSHORE BUOYS BEYOND 100 NM OFFSHORE...........
.....IN A TRIANGLE---HAT TO BERMUDA TO BAHAMAS TO HAT.....


STATION/POSITION TIME  SKY/WX   TEMP    WIND        PRES    VSBY
                                AIR SEA DIR/SP/G
                 (UTC)          (F)     (DEG/KT/KT) (MB)    (MI)
150E HAT   41001 NOT AVBL
W BERMUDA  41048 0819            80 82  120/ 14/ 16 1020.5R
WVE H/P(F/S)=  4/ 7 WND WVE H/P(F/S)=  3/ 6 SWL H/P/D(F/S/D)=  2/140/ 7

ATLANTIC S 41049 0825            81 83   70/  2/  4 1019.0S
WVE H/P(F/S)=  3/ 7 WND WVE H/P(F/S)=  2/ 4 SWL H/P/D(F/S/D)=  3/ 70/ 7

E BAHAMAS  41046 0842            82 83  120/ 14/ 17 1016.3S
WVE H/P(F/S)=  4/ 6 WND WVE H/P(F/S)=  3/ 6 SWL H/P/D(F/S/D)=  2/ 70/11

NE BAHAMAS 41047 0836            83 84  110/ 16/ 19 1016.7F
WVE H/P(F/S)=  5/ 7 WND WVE H/P(F/S)=  5/ 7 SWL H/P/D(F/S/D)=  2/ 90/11

120E CANVRL41010 0900            83 84  140/ 16/ 17 1014.4S
WVE H/P(F/S)=  4/ 4 WND WVE H/P(F/S)=  3/ 4 SWL H/P/D(F/S/D)=  2/ 80/12


END



USA.gov is the U.S. government's official web portal to all federal, state and local government web resources and services.